Regional Weather Roundup
Issued by NWS

Home | Current Version | Previous Version | Graphics & Text | Print | Product List | Glossary On
Versions: 1 2 3 4 5 6 7 8 9 10 11 12 13 14 15 16 17 18 19 20 21 22 23 24 25 26 27 28 29 30 31 32 33 34 35 36 37 38 39 40 41 42 43 44 45 46 47 48 49 50
000
ASUS45 KBOU 181007
RWRCO

WEATHER ROUNDUP FOR COLORADO
NATIONAL WEATHER SERVICE DENVER/BOULDER CO
400 AM MDT SAT APR 18 2015

NOTE: "FAIR" INDICATES FEW OR NO CLOUDS BELOW 12000 FEET WITH NO
SIGNIFICANT WEATHER AND/OR OBSTRUCTIONS TO VISIBILITY.

COZ001>005-013-030-031-181100-
...NORTHWEST COLORADO...

CITY           SKY/WX    TMP DP  RH WIND       PRES   REMARKS
CRAIG          CLOUDY    34  30  85 W9        30.02S WCI  27
HAYDEN         CLOUDY    34  28  80 W13       30.00S WCI  25
MEEKER         CLOUDY    37  32  82 MISG      30.01S
MOUNT WERNER   NOT AVBL
STEAMBOAT SPGS CLOUDY    32  28  84 CALM      29.99S
WALDEN         CLOUDY    25  23  93 CALM      29.98F
$$

COZ006>008-011-181100-
...WEST CENTRAL VALLEYS...

CITY           SKY/WX    TMP DP  RH WIND       PRES   REMARKS
GRAND JUNCTION CLOUDY    34  34 100 CALM      30.04S
MONTROSE       FOG       31  31 100 W5        30.06S VSB 3/4 WCI  26
EAGLE          CLOUDY    30  28  93 CALM      30.05R
RIFLE          CLOUDY    34  31  88 NE5       30.04F WCI  30
DELTA          CLOUDY    36  36  98 E5        30.06S
NUCLA          FOG       32  32 100 CALM      30.07R VSB 1/2
$$

COZ017>023-064>068-181100-
...SOUTHWEST COLORADO...

CITY           SKY/WX    TMP DP  RH WIND       PRES   REMARKS
DURANGO        FLURRIES  30  29  96 SE3       29.99F
CORTEZ         CLOUDY    33  33 100 S3        30.02S FOG
PAGOSA SPRINGS MOCLDY    23  17  78 CALM      30.00S
TELLURIDE      PTCLDY    23  22  98 S3        30.01R
WOLF CREEK PAS PTCLDY    10  10 100 NE13      30.00F WCI  -5
$$

COZ009-010-012-014-032>034-037-058>063-181100-
...CENTRAL COLORADO...

CITY           SKY/WX    TMP DP  RH WIND       PRES   REMARKS
ASPEN          MOCLDY    20  17  88 CALM      30.01R
BUENA VISTA    MOCLDY    20  14  79 E5        30.00F WCI  13
COPPER MTN     CLOUDY    19  12  73 CALM      29.99R
BERTHOUD PASS  SNOW      12   5  73 NE3       30.00S VSB 1/4
COTTONWOOD PAS MOCLDY    27  14  59 CALM      29.98F
GUNNISON       MOCLDY    19  18  93 CALM      30.06R
KREMMLING      CLOUDY    30  21  69 CALM      30.00F
LEADVILLE      CLOUDY    13  10  88 NE5       29.98S WCI   5
MONARCH PASS   MOCLDY    12  10  92 MISG      30.07F
SALIDA         MOCLDY    22  16  79 CALM      30.09S
SUNLIGHT       CLOUDY    21  18  86 W5        30.05F WCI  15
WILKERSON PASS CLOUDY    19  14  79 CALM      30.00S
$$

COZ069>075-181100-
...SAN LUIS VALLEY/SANGRE DE CRISTO MOUNTAINS...

CITY           SKY/WX    TMP DP  RH WIND       PRES   REMARKS
ALAMOSA        PTCLDY    21  16  81 NE5       30.00S WCI  15
LA VETA PASS   CLOUDY    19  14  79 SW3       29.98F
SAGUACHE       PTCLDY    23  18  80 NW8       30.02S WCI  14
$$

COZ035-036-038>040-181100-
...NORTHERN COLORADO FRONT RANGE...

CITY           SKY/WX    TMP DP  RH WIND       PRES   REMARKS
DENVER INTL AP CLOUDY    37  35  92 NW10      29.96F
DMNS CITY PARK   N/A     39  36  89 SE3       29.97F
AURORA         MOCLDY    37  37 100 NW6       29.98F
FRONT RANGE AP MOCLDY    36  36 100 W6        29.98S FOG
ERIE MUNI ARPT CLOUDY    39  37  92 CALM      29.98F
BOULDER MUN AP CLOUDY    39  36  87 CALM      29.97F
CENTENNIAL     CLOUDY    36  35  96 CALM      29.97F
BROOMFIELD     CLOUDY    37  36  93 CALM      29.98F
FORT COLLINS   CLOUDY    39  34  81 CALM      29.99F
LONGMONT       CLOUDY    41  37  84 CALM      29.99F
$$

COZ041-046-047-076>085-087-088-181100-
...PIKES PEAK/PALMER DIVIDE AND SOUTHERN FOOTHILLS...

CITY           SKY/WX    TMP DP  RH WIND       PRES   REMARKS
COLO. SPRINGS  MOCLDY    36  32  85 CALM      29.97F
A. F. ACADEMY  MOCLDY    32  32 100 N8        29.96F WCI  25
ELLICOTT       PTCLDY   N/A N/A N/A NE5       29.95F
FALCON         CLOUDY    32  32 100 N8        29.97F FOG     WCI  25
FORT CARSON    MOCLDY    35  31  86 NW2       29.96R
LIMON          CLOUDY    36  35  96 N8        29.96F
MONUMENT HILL  CLOUDY    32  30  93 N3        29.97S FOG
TRINIDAD       PTCLDY    32  26  78 W10       29.97F WCI  24
$$

COZ042>045-048>051-090-091-181100-
...NORTHEAST COLORADO...

CITY           SKY/WX    TMP DP  RH WIND       PRES   REMARKS
GREELEY ARPT   CLOUDY    37  30  75 N13       29.96F
AKRON          MOCLDY    37  37 100 N8        29.94F
BURLINGTON     CLOUDY    43  41  93 NW9       29.93S
WRAY           CLOUDY    43  43 100 N10       29.93F
STERLING       PTCLDY    41  37  87 CALM      29.94F
HOLYOKE        CLOUDY    46  43  87 N10       29.94S
FORT MORGAN    PTCLDY    34  33  95 NW6       29.96F WCI  29
$$

COZ086-089-092>099-181100-
...SOUTHEAST COLORADO...

CITY           SKY/WX    TMP DP  RH WIND       PRES   REMARKS
PUEBLO         LGT RAIN  40  35  83 CALM      29.97F
LA JUNTA       MOCLDY    42  36  79 W13       29.96F
LAMAR          MOCLDY    42  39  89 W13       29.93S
SPRINGFIELD      N/A     39  34  82 NW9       29.93S
$$


USA.gov is the U.S. government's official web portal to all federal, state and local government web resources and services.